Zurück zum Katalog

STARLINK-34552

AktivKommunikationVLEO
NORAD 64731·PAYLOAD·🇺🇸 United States

Gestartet Jul 2, 2025 von Cape Canaveral Space Force Station

Loading…

Nächste Überflüge (nächste 24 Stunden)

TLE

AktuellSource: CelesTrak SupGP

Epoche: Sep 15, 2026, 03:51 UTC

1 64731C 25144H   26258.16090278  .00060942  00000+0  18005-2 0  2587
2 64731  53.1603  18.8894 0001204  91.7754 138.4900 15.34360668    17

Verfolge STARLINK-34552 in Echtzeit mit AllMySat

Download on the App Store